Vertical_Velocity
6 -18 -14 5 -6 2 7 5 8 13 3 -1 1 3 -1 -1 -4 -15 -5 -6 1 1 -2 -8 4 6 8 -1 1 9 6 7 5 -1 2 2 1 -0 0 -0 -3 0 0 -0
0 -13 9 5 14 0 2 3 1 -0 -1 -0 -3 4 1 -3 5 0 7 15 -2 -1 -5 -5 3 4 5 1 -2 -2 -0 -3 0 1 1 1 1 -0 -1 0 -0 3 1 1
-7 3 -0 3 4 -2 -2 4 1 1 4 -1 -1 -7 -11 4 -3 2 -5 4 17 -3 6 5 3 5 -4 2 1 0 1 -0 -0 -2 0 2 3 4 4 1 -1 2 3 3
-0 -0 -4 5 4 1 6 7 1 -2 -4 -1 -3 -8 -8 -2 -1 -8 -3 -1 -1 -8 15 -1 6 5 2 -0 0 3 0 2 1 1 2 1 -1 1 -2 2 2 2 0 1
1 5 -3 7 7 1 6 2 -2 -1 -7 3 -6 -10 8 -6 -11 -3 7 2 0 -4 11 -3 -2 -0 1 -1 1 1 -2 -2 1 1 1 1 2 1 1 1 1 -1 1 1
-3 1 -3 -0 43 4 3 -2 -2 -1 -2 -11 1 -9 8 -4 14 5 2 -1 4 -1 2 -1 -2 0 1 -0 1 0 1 -0 -2 -2 -1 -1 0 1 3 -0 2 0 0 1
4 9 10 6 15 2 1 -1 -6 -6 -21 -10 -5 -15 34 -5 -2 2 -3 -4 2 -8 -12 2 -2 -3 1 -0 -0 1 1 -0 -1 -2 -2 -0 -0 -0 -1 -1 1 1 -0 0
9 16 11 7 -1 11 8 1 -1 -13 -13 4 2 -18 21 -1 2 -1 -2 -2 1 4 -5 -1 4 0 -2 -0 -0 -1 0 0 -0 0 0 1 1 -1 -1 -0 -1 -1 -1 -1
-6 -4 3 1 1 -4 -2 -9 -5 -4 -5 7 -8 -2 16 -2 2 0 -2 1 -6 1 -1 -1 -3 4 0 1 -1 1 0 -1 -1 -1 -1 -1 -1 0 2 2 1 1 2 1
-7 5 0 5 -4 -5 -1 13 -7 -3 -1 4 -4 4 10 5 -3 -1 3 1 1 2 1 -2 1 2 3 -1 -1 0 1 2 -0 -1 -0 -0 0 1 0 1 -1 0 -1 -1
-3 -3 6 2 -1 8 -5 -14 -11 2 -4 -5 4 3 8 2 -2 -3 -4 0 1 1 -3 1 1 1 2 -3 -1 3 3 2 1 1 1 1 1 1 -0 0 1 1 1 1
-3 -10 2 3 -1 -1 -7 -4 -4 -7 -0 1 3 5 3 -0 -2 1 -2 -2 0 -2 -3 -1 -3 -0 -1 1 10 8 1 0 0 -0 -2 -0 -0 2 1 1 0 1 3 2
-10 3 -0 -2 -6 -8 -6 -2 -1 -0 1 -1 -9 12 3 5 -0 -1 -1 -3 -4 -1 1 2 3 -4 -1 -1 2 5 3 1 1 3 -2 1 -2 -2 -4 -2 -0 1 1 1
-2 -8 1 9 11 8 4 5 3 -5 -15 12 -0 6 6 4 -0 -3 -1 -1 -2 -3 -2 -0 3 7 1 -1 0 -3 1 3 1 1 -3 -0 -3 -2 0 -3 -1 0 -1 -1
3 2 -2 -3 -3 -4 -3 -4 -7 -12 6 -21 15 -6 4 -10 -1 -1 3 -1 -3 -4 -0 -0 2 0 3 0 2 4 -6 -7 2 4 4 -2 2 3 -1 -1 -1 1 -0 -1
0 0 0 -1 1 -1 -1 -2 1 3 -4 3 -2 15 -13 -3 3 0 -4 -2 -3 -0 -3 -2 -0 4 2 -3 -2 1 -6 -7 -7 -1 -1 -1 2 -2 2 -0 -3 -2 0 -2
2 0 -0 0 -1 -2 2 1 -1 -2 -1 -4 8 -9 4 0 -0 -3 -2 -1 -2 -2 1 2 -2 0 3 1 -0 0 0 -3 2 -0 -5 -2 1 -4 -0 0 -0 0 -0 0
1 -1 1 1 0 0 3 -1 -0 1 -4 3 3 -3 -2 -1 -3 1 1 -1 1 -2 -1 -0 2 -1 2 3 2 1 0 1 -0 -0 -0 -4 -6 -4 1 -0 1 2 -0 1
1 1 -2 -3 -1 -2 -3 -1 -2 -1 -2 0 3 -1 -1 -0 -0 2 1 1 -1 0 -0 -2 -1 1 2 -1 -1 0 0 -1 2 -7 -1 2 -0 2 1 1 1 1 1 1
-1 -2 -0 -0 0 2 0 -2 -3 -1 -0 2 0 -0 1 2 2 -7 -3 -1 -0 1 2 0 1 1 0 1 1 1 1 1 -2 3 -1 -1 0 1 1 0 -0 2 1 1
-2 -1 1 -0 -1 2 1 -1 -2 -3 -1 -1 0 2 1 0 -2 2 2 1 -2 1 -0 -0 -1 -1 -2 -1 1 0 0 -1 1 -1 0 1 2 -0 3 2 -0 1 1 0
1 0 -2 -2 -1 1 4 2 -1 0 -1 -2 -2 -1 1 1 1 1 1 1 -0 0 1 -3 1 1 1 0 0 -1 0 2 -0 0 1 -2 -2 -2 -1 -1 2 2 -0 3
1 -1 1 -0 -3 -0 1 -0 -0 0 1 1 0 -0 1 1 1 1 1 1 1 -1 1 0 1 0 0 -0 1 -0 -1 -2 -0 1 1 -0 0 0 1 1 0 0 2 2
-0 2 -1 1 -1 -1 0 -0 -1 1 0 1 1 -2 -0 0 0 -0 1 2 1 1 1 1 1 1 2 1 -0 -0 1 -1 -1 -0 -1 1 2 2 1 0 0 0 1 1
0 2 1 -0 -2 -0 -1 1 1 1 1 1 1 1 -1 1 1 1 1 2 2 1 1 1 1 1 2 0 -0 1 0 1 2 1 1 1 1 1 1 2 2 1 1 2
-1 -0 2 2 1 1 -0 -0 -0 1 1 -1 -0 1 0 -1 -0 -1 -1 1 1 -1 -1 1 1 -2 1 -1 -0 0 -0 0 1 0 0 0 1 2 1 1 1 2 3 2
Height
5576 5584 5596 5609 5620 5631 5642 5652 5660 5669 5677 5682 5688 5695 5700 5704 5711 5716 5728 5734 5743 5750 5754 5761 5768 5773 5778 5785 5790 5796 5801 5803 5808 5813 5819 5823 5826 5827 5829 5831 5833 5835 5837 5837
5574 5586 5596 5608 5620 5627 5636 5646 5657 5666 5674 5678 5684 5690 5695 5701 5709 5715 5724 5730 5737 5742 5748 5754 5761 5765 5771 5774 5779 5785 5790 5797 5801 5806 5810 5814 5817 5819 5822 5825 5827 5829 5829 5830
5572 5585 5594 5605 5617 5624 5634 5645 5655 5663 5670 5675 5681 5685 5690 5697 5700 5707 5715 5722 5728 5736 5743 5748 5753 5758 5761 5767 5772 5777 5783 5788 5793 5798 5802 5806 5809 5813 5815 5817 5819 5820 5821 5823
5572 5583 5592 5604 5617 5624 5633 5643 5650 5658 5665 5672 5677 5681 5685 5691 5697 5704 5711 5718 5723 5732 5736 5741 5748 5751 5755 5761 5766 5770 5775 5781 5785 5790 5794 5798 5802 5805 5807 5808 5811 5813 5813 5815
5575 5583 5592 5605 5616 5622 5631 5638 5646 5654 5660 5667 5672 5676 5683 5687 5693 5704 5707 5709 5715 5719 5725 5732 5739 5742 5747 5753 5758 5762 5766 5771 5777 5782 5786 5790 5794 5798 5800 5802 5804 5806 5807 5808
5577 5585 5594 5606 5614 5619 5627 5634 5644 5652 5658 5663 5670 5674 5680 5682 5689 5692 5696 5702 5707 5710 5715 5721 5731 5737 5742 5746 5751 5755 5759 5763 5767 5772 5777 5782 5786 5789 5792 5794 5796 5798 5799 5800
5579 5586 5596 5605 5612 5621 5626 5631 5640 5648 5654 5659 5666 5670 5677 5679 5682 5687 5691 5696 5700 5703 5708 5715 5722 5729 5734 5737 5741 5747 5751 5755 5760 5764 5767 5771 5774 5778 5781 5783 5786 5788 5790 5791
5581 5588 5594 5602 5611 5621 5625 5631 5637 5644 5651 5656 5663 5665 5673 5677 5679 5683 5685 5689 5694 5699 5703 5708 5714 5719 5725 5729 5733 5737 5742 5747 5751 5755 5758 5762 5765 5769 5771 5774 5776 5778 5779 5780
5583 5588 5596 5604 5612 5619 5624 5630 5636 5643 5648 5654 5661 5664 5672 5675 5677 5679 5682 5684 5688 5691 5696 5701 5705 5710 5715 5720 5725 5730 5734 5737 5741 5744 5748 5752 5756 5760 5763 5765 5766 5768 5770 5771
5588 5592 5599 5608 5613 5619 5625 5632 5635 5639 5644 5650 5657 5661 5667 5671 5673 5674 5677 5678 5680 5683 5687 5691 5696 5700 5706 5712 5714 5719 5724 5728 5732 5735 5739 5742 5745 5749 5752 5755 5757 5758 5760 5761
5589 5593 5600 5606 5612 5618 5624 5628 5632 5638 5642 5646 5653 5658 5663 5665 5667 5669 5671 5674 5676 5677 5679 5682 5685 5690 5694 5700 5705 5709 5713 5717 5720 5724 5727 5731 5734 5738 5741 5744 5746 5748 5750 5750
5591 5595 5603 5608 5611 5616 5622 5628 5633 5636 5641 5644 5648 5655 5657 5661 5663 5665 5667 5669 5670 5670 5670 5674 5678 5682 5685 5690 5695 5700 5704 5707 5711 5715 5718 5721 5725 5728 5730 5732 5735 5738 5739 5740
5594 5599 5603 5607 5612 5616 5620 5626 5629 5633 5637 5640 5644 5650 5653 5656 5658 5660 5661 5663 5662 5662 5662 5664 5668 5674 5679 5682 5687 5690 5693 5696 5700 5705 5709 5712 5716 5719 5721 5722 5725 5727 5730 5730
5595 5599 5603 5610 5614 5618 5621 5625 5629 5633 5635 5638 5640 5646 5650 5652 5653 5654 5654 5655 5655 5656 5656 5656 5660 5665 5670 5675 5679 5683 5685 5688 5692 5695 5699 5703 5706 5709 5711 5713 5715 5717 5719 5720
5594 5598 5604 5607 5610 5613 5617 5621 5623 5625 5630 5632 5638 5637 5643 5643 5645 5647 5649 5649 5649 5649 5650 5651 5653 5657 5662 5667 5671 5675 5678 5680 5683 5687 5691 5694 5697 5699 5702 5704 5706 5707 5709 5710
5594 5597 5601 5604 5608 5611 5614 5617 5619 5622 5625 5628 5633 5635 5637 5637 5637 5640 5641 5642 5642 5642 5642 5644 5647 5652 5655 5660 5664 5667 5670 5673 5676 5678 5682 5685 5687 5690 5692 5693 5695 5698 5699 5700
5593 5596 5599 5602 5605 5608 5612 5613 5615 5617 5619 5622 5625 5628 5629 5631 5632 5632 5633 5634 5635 5634 5635 5637 5640 5644 5648 5652 5656 5659 5662 5665 5668 5670 5673 5676 5678 5680 5683 5684 5686 5687 5689 5690
5591 5594 5597 5600 5602 5606 5609 5610 5611 5613 5615 5617 5621 5623 5623 5623 5625 5626 5628 5630 5630 5630 5629 5631 5634 5638 5641 5645 5648 5650 5653 5656 5659 5662 5664 5667 5669 5672 5673 5674 5676 5677 5678 5681
5588 5592 5595 5597 5600 5604 5604 5606 5608 5609 5612 5613 5616 5618 5618 5619 5620 5622 5624 5624 5625 5627 5627 5628 5629 5632 5635 5638 5641 5643 5646 5648 5650 5652 5655 5657 5660 5661 5663 5665 5667 5668 5670 5672
5585 5588 5592 5594 5596 5599 5600 5601 5603 5605 5607 5608 5610 5611 5613 5614 5616 5616 5617 5618 5621 5622 5623 5624 5626 5628 5630 5632 5634 5636 5638 5639 5642 5644 5647 5648 5651 5652 5654 5656 5658 5660 5662 5664
5582 5585 5589 5590 5592 5595 5596 5597 5599 5601 5606 5603 5604 5606 5608 5609 5610 5610 5612 5614 5616 5618 5619 5619 5621 5623 5625 5627 5628 5630 5631 5632 5634 5636 5637 5640 5641 5644 5646 5648 5650 5651 5653 5655
5580 5582 5585 5587 5588 5592 5592 5594 5596 5597 5598 5599 5600 5601 5603 5604 5606 5607 5608 5610 5611 5613 5615 5616 5617 5619 5620 5622 5623 5624 5625 5626 5627 5628 5630 5632 5634 5636 5638 5640 5642 5643 5646 5648
5578 5579 5582 5584 5585 5586 5588 5589 5591 5593 5595 5596 5597 5598 5599 5600 5601 5603 5604 5605 5607 5608 5610 5611 5612 5613 5614 5615 5616 5617 5618 5619 5620 5621 5622 5624 5626 5628 5630 5632 5634 5636 5639 5641
5574 5575 5577 5580 5580 5581 5582 5585 5587 5589 5591 5592 5594 5595 5595 5596 5597 5598 5600 5601 5602 5603 5605 5606 5607 5607 5608 5609 5610 5611 5612 5612 5613 5614 5615 5617 5619 5621 5623 5626 5627 5630 5632 5634
5571 5572 5573 5575 5577 5579 5579 5581 5583 5585 5587 5588 5589 5590 5592 5593 5594 5594 5595 5596 5597 5598 5599 5600 5601 5602 5602 5603 5604 5605 5606 5606 5607 5607 5609 5610 5613 5615 5617 5619 5621 5624 5626 5628
5567 5568 5570 5571 5573 5575 5576 5578 5579 5581 5583 5584 5585 5586 5588 5589 5589 5590 5591 5592 5592 5593 5594 5595 5595 5596 5597 5597 5598 5599 5600 5601 5602 5603 5604 5605 5607 5609 5610 5613 5615 5617 5619 5621